Liberal, KS

5:24 PM CDT on April 21, 2018 (GMT -0500)
Liberal Municipal

Weather History for KLBL - April, 2013

Change the Weather History Date:

Friday, April 19, 2013

  Actual Average Record
Temperature  
Mean Temperature 44 °F -  
Max Temperature 64 °F 72 °F 92 °F (1961)
Min Temperature 23 °F 43 °F 23 °F (2013)
Degree Days  
Heating Degree Days 22    
Moisture  
Dew Point 19 °F    
Average Humidity 42    
Maximum Humidity 74    
Minimum Humidity 18    
Precipitation  
Precipitation 0.00 in - - ()
Sea Level Pressure  
Sea Level Pressure 30.11 in    
Wind  
Wind Speed 12 mph (WNW)    
Max Wind Speed 20 mph    
Max Gust Speed 31 mph    
Visibility 10 miles    
Events      
Averages and records for this station are not official NWS values.
T = Trace of Precipitation, MM = Missing Value Source: NWS Daily Summary

Daily Weather History Graph

Daily Weather History Graph

Search for Another Location

Airport or City:

Astronomy

Apr. 19, 2013 Rise Set
Actual Time 7:03 AM CDT 8:22 PM CDT
Civil Twilight 6:36 AM CDT 8:49 PM CDT
Nautical Twilight 6:04 AM CDT 9:22 PM CDT
Astronomical Twilight 5:30 AM CDT 9:56 PM CDT
Moon 2:17 PM CDT (4/19) 3:11 AM CDT (4/19)
Length of Visible Light 14h 12m
Length of Day
13h 18m
First Quarter, 62% of the Moon is Illuminated
Apr 19
First Quarter
Apr 25
Full
May 2
Last Quarter
May 9
New
May 17
First Quarter

Hourly Weather History & Observations

Time (CDT) Temp. Windchill Dew Point Humidity Pressure Visibility Wind Dir Wind Speed Gust Speed Precip Events Conditions
12:15 AM 30.2 °F 20.2 °F 15.8 °F 55% 30.19 in 10.0 mi NW 12.7 mph - N/A   Clear
12:35 AM 28.4 °F 19.7 °F 15.8 °F 59% 30.19 in 10.0 mi WNW 9.2 mph - N/A   Clear
12:55 AM 24.8 °F 14.6 °F 14.0 °F 64% 30.19 in 10.0 mi WNW 10.4 mph - N/A   Clear
1:15 AM 26.6 °F 16.2 °F 15.8 °F 64% 30.19 in 10.0 mi WNW 11.5 mph - N/A   Clear
1:35 AM 26.6 °F 15.7 °F 15.8 °F 64% 30.19 in 10.0 mi WNW 12.7 mph - N/A   Clear
1:55 AM 26.6 °F 15.2 °F 15.8 °F 64% 30.19 in 10.0 mi WNW 13.8 mph - N/A   Clear
2:15 AM 26.6 °F 15.7 °F 15.8 °F 64% 30.19 in 10.0 mi WNW 12.7 mph - N/A   Clear
2:35 AM 26.6 °F 15.7 °F 15.8 °F 64% 30.19 in 10.0 mi WNW 12.7 mph - N/A   Clear
2:55 AM 26.6 °F 15.7 °F 15.8 °F 64% 30.19 in 10.0 mi WNW 12.7 mph - N/A   Clear
3:15 AM 26.6 °F 15.7 °F 14.0 °F 59% 30.18 in 10.0 mi West 12.7 mph - N/A   Clear
3:35 AM 24.8 °F 14.0 °F 15.8 °F 69% 30.18 in 10.0 mi West 11.5 mph - N/A   Clear
3:55 AM 24.8 °F 14.6 °F 14.0 °F 64% 30.18 in 10.0 mi West 10.4 mph - N/A   Clear
4:15 AM 24.8 °F 14.0 °F 14.0 °F 64% 30.18 in 10.0 mi West 11.5 mph - N/A   Clear
4:35 AM 24.8 °F 14.0 °F 14.0 °F 64% 30.17 in 10.0 mi West 11.5 mph - N/A   Clear
4:55 AM 24.8 °F 14.0 °F 15.8 °F 69% 30.17 in 10.0 mi West 11.5 mph - N/A   Clear
5:15 AM 24.8 °F 14.6 °F 15.8 °F 69% 30.17 in 10.0 mi West 10.4 mph - N/A   Clear
5:55 AM 23.0 °F 12.4 °F 15.8 °F 74% 30.15 in 10.0 mi West 10.4 mph - N/A   Clear
6:15 AM 23.0 °F 13.1 °F 15.8 °F 74% 30.15 in 10.0 mi West 9.2 mph - N/A   Clear
6:35 AM 23.0 °F 13.1 °F 15.8 °F 74% 30.15 in 10.0 mi West 9.2 mph - N/A   Clear
6:55 AM 23.0 °F 13.1 °F 15.8 °F 74% 30.15 in 10.0 mi West 9.2 mph - N/A   Clear
7:15 AM 24.8 °F 14.0 °F 17.6 °F 74% 30.15 in 10.0 mi West 11.5 mph - N/A   Clear
7:35 AM 26.6 °F 16.2 °F 17.6 °F 69% 30.16 in 10.0 mi West 11.5 mph - N/A   Clear
7:55 AM 28.4 °F 18.0 °F 21.2 °F 74% 30.16 in 10.0 mi West 12.7 mph - N/A   Clear
8:15 AM 30.2 °F 19.3 °F 21.2 °F 69% 30.16 in 10.0 mi West 15.0 mph - N/A   Clear
8:35 AM 33.8 °F 23.2 °F 24.8 °F 70% 30.17 in 10.0 mi West 17.3 mph - N/A   Clear
8:55 AM 37.4 °F 27.8 °F 26.6 °F 65% 30.16 in 10.0 mi West 17.3 mph 23.0 mph N/A   Clear
9:15 AM 39.2 °F 29.6 °F 28.4 °F 65% 30.16 in 10.0 mi West 19.6 mph - N/A   Clear
9:55 AM 46.4 °F 39.2 °F 30.2 °F 53% 30.16 in 10.0 mi WNW 18.4 mph 23.0 mph N/A   Clear
10:15 AM 48.2 °F - 30.2 °F 50% 30.16 in 10.0 mi WNW 16.1 mph - N/A   Clear
10:35 AM 51.8 °F - 30.2 °F 44% 30.16 in 10.0 mi WNW 17.3 mph 21.9 mph N/A   Clear
10:55 AM 53.6 °F - 28.4 °F 38% 30.15 in 10.0 mi WNW 13.8 mph 21.9 mph N/A   Clear
11:15 AM 53.6 °F - 28.4 °F 38% 30.15 in 10.0 mi WNW 13.8 mph 18.4 mph N/A   Clear
11:35 AM 55.4 °F - 26.6 °F 33% 30.15 in 10.0 mi WNW 13.8 mph - N/A   Clear
11:55 AM 55.4 °F - 24.8 °F 31% 30.14 in 10.0 mi West 16.1 mph 23.0 mph N/A   Clear
12:15 PM 57.2 °F - 24.8 °F 29% 30.14 in 10.0 mi WNW 17.3 mph 21.9 mph N/A   Clear
12:35 PM 57.2 °F - 24.8 °F 29% 30.14 in 10.0 mi WNW 12.7 mph 23.0 mph N/A   Clear
12:55 PM 59.0 °F - 23.0 °F 25% 30.13 in 10.0 mi WNW 18.4 mph 25.3 mph N/A   Clear
1:15 PM 59.0 °F - 23.0 °F 25% 30.11 in 10.0 mi NW 19.6 mph 25.3 mph N/A   Clear
1:35 PM 60.8 °F - 21.2 °F 22% 30.10 in 10.0 mi NW 15.0 mph 31.1 mph N/A   Clear
1:55 PM 60.8 °F - 21.2 °F 22% 30.10 in 10.0 mi WNW 19.6 mph 24.2 mph N/A   Clear
2:15 PM 60.8 °F - 21.2 °F 22% 30.09 in 10.0 mi NW 18.4 mph 24.2 mph N/A   Clear
2:35 PM 60.8 °F - 21.2 °F 22% 30.09 in 10.0 mi NW 16.1 mph 20.7 mph N/A   Clear
2:55 PM 62.6 °F - 19.4 °F 19% 30.09 in 10.0 mi WNW 11.5 mph 23.0 mph N/A   Clear
3:15 PM 62.6 °F - 21.2 °F 20% 30.08 in 10.0 mi North 13.8 mph 21.9 mph N/A   Clear
3:35 PM 62.6 °F - 21.2 °F 20% 30.08 in 10.0 mi NW 10.4 mph 24.2 mph N/A   Clear
3:55 PM 62.6 °F - 19.4 °F 19% 30.07 in 10.0 mi North 11.5 mph 25.3 mph N/A   Clear
4:15 PM 62.6 °F - 19.4 °F 19% 30.06 in 10.0 mi NNW 15.0 mph 20.7 mph N/A   Clear
4:35 PM 62.6 °F - 19.4 °F 19% 30.05 in 10.0 mi WNW 5.8 mph 17.3 mph N/A   Clear
4:55 PM 64.4 °F - 19.4 °F 18% 30.05 in 10.0 mi NNW 10.4 mph 20.7 mph N/A   Clear
5:15 PM 62.6 °F - 19.4 °F 19% 30.04 in 10.0 mi West 12.7 mph 19.6 mph N/A   Clear
5:35 PM 62.6 °F - 19.4 °F 19% 30.04 in 10.0 mi West 8.1 mph - N/A   Clear
5:55 PM 62.6 °F - 19.4 °F 19% 30.03 in 10.0 mi NNW 9.2 mph - N/A   Clear
6:15 PM 62.6 °F - 17.6 °F 18% 30.03 in 10.0 mi Calm Calm - N/A   Clear
6:35 PM 62.6 °F - 17.6 °F 18% 30.03 in 10.0 mi West 10.4 mph - N/A   Clear
6:55 PM 60.8 °F - 17.6 °F 19% 30.02 in 10.0 mi WNW 9.2 mph - N/A   Clear
7:15 PM 60.8 °F - 17.6 °F 19% 30.02 in 10.0 mi WNW 3.5 mph - N/A   Clear
7:35 PM 60.8 °F - 17.6 °F 19% 30.01 in 10.0 mi Calm Calm - N/A   Clear
7:55 PM 60.8 °F - 17.6 °F 19% 30.01 in 10.0 mi Calm Calm - N/A   Clear
8:15 PM 59.0 °F - 15.8 °F 19% 30.01 in 10.0 mi Calm Calm - N/A   Clear
8:35 PM 55.4 °F - 15.8 °F 21% 30.01 in 10.0 mi SE 4.6 mph - N/A   Clear
8:55 PM 55.4 °F - 17.6 °F 23% 30.01 in 10.0 mi East 5.8 mph - N/A   Clear
9:15 PM 51.8 °F - 15.8 °F 24% 30.01 in 10.0 mi ESE 5.8 mph - N/A   Clear
9:35 PM 51.8 °F - 15.8 °F 24% 30.02 in 10.0 mi SSE 9.2 mph - N/A   Clear
9:55 PM 46.4 °F 41.9 °F 15.8 °F 29% 30.03 in 10.0 mi SSE 9.2 mph - N/A   Clear
10:15 PM 44.6 °F 39.7 °F 17.6 °F 34% 30.03 in 10.0 mi SE 9.2 mph - N/A   Clear
10:35 PM 44.6 °F 39.7 °F 17.6 °F 34% 30.03 in 10.0 mi SE 9.2 mph - N/A   Clear
10:55 PM 44.6 °F 39.7 °F 17.6 °F 34% 30.02 in 10.0 mi ESE 9.2 mph - N/A   Clear
11:15 PM 46.4 °F 41.9 °F 19.4 °F 34% 30.02 in 10.0 mi ESE 9.2 mph - N/A   Clear
11:35 PM 48.2 °F - 21.2 °F 34% 30.01 in 10.0 mi SE 10.4 mph - N/A   Clear
11:55 PM 46.4 °F 41.5 °F 17.6 °F 32% 30.01 in 10.0 mi SSE 10.4 mph - N/A   Clear